Lewistown, MT

1:46 AM MDT on September 23, 2017 (GMT -0600)
Lewistown Municipal

Weather History for KLWT - January, 2014

Change the Weather History Date:

Wednesday, January 1, 2014

  Actual Average Record
Temperature  
Mean Temperature 20 °F 23 °F  
Max Temperature 28 °F 34 °F 55 °F (1964)
Min Temperature 12 °F 12 °F -33 °F (1942)
Degree Days  
Heating Degree Days 45 42  
Month to date heating degree days 45 42  
Since 1 July heating degree days 3438 3464  
Cooling Degree Days 0 0  
Month to date cooling degree days 0 0  
Year to date cooling degree days 0 0  
Moisture  
Dew Point 23 °F    
Average Humidity 84    
Maximum Humidity 100    
Minimum Humidity 68    
Precipitation  
Precipitation 0.15 in 0.02 in 0.35 in (1999)
Month to date precipitation 0.15 0.02  
Year to date precipitation 0.15 0.02  
Sea Level Pressure  
Sea Level Pressure 30.21 in    
Wind  
Wind Speed 8 mph (West)    
Max Wind Speed 15 mph    
Max Gust Speed 17 mph    
Visibility 5 miles    
Events Snow    
T = Trace of Precipitation, MM = Missing Value Source: NWS Daily Summary

Daily Weather History Graph

Daily Weather History Graph

Search for Another Location

Airport or City:

Trip Planner

Search our weather history database for the weather conditions in past years. The results will help you decide how hot, cold, wet, or windy it might be!

Date:

Astronomy

Jan. 01, 2014 Rise Set
Actual Time 8:03 AM MST 4:39 PM MST
Civil Twilight 7:28 AM MST 5:14 PM MST
Nautical Twilight 6:49 AM MST 5:53 PM MST
Astronomical Twilight 6:12 AM MST 6:30 PM MST
Moon 7:52 AM MST (1/1) 5:33 PM MST (1/1)
Length of Visible Light 9h 46m
Length of Day
8h 35m
New Moon, 0% of the Moon is Illuminated
Jan 1
New Moon
Jan 7
First Quarter
Jan 15
Full
Jan 23
Last Quarter
Jan 30
New

Hourly Weather History & Observations

Time (MST) Temp. Windchill Dew Point Humidity Pressure Visibility Wind Dir Wind Speed Gust Speed Precip Events Conditions
12:12 AM 26.1 °F 17.6 °F 26.1 °F 100% 30.03 in 1.2 mi North 8.1 mph - 0.00 in Snow Light Snow
12:24 AM 26.1 °F 17.6 °F 26.1 °F 100% 30.03 in 0.8 mi North 8.1 mph - 0.01 in Snow Light Snow
12:54 AM 26.1 °F 20.5 °F 25.0 °F 96% 30.12 in 0.8 mi NNW 4.6 mph - 0.04 in Snow Light Snow
1:20 AM 24.1 °F 18.2 °F 24.1 °F 100% 30.04 in 1.2 mi West 4.6 mph - 0.03 in Snow Light Snow
1:45 AM 24.1 °F 16.0 °F 23.0 °F 96% 30.06 in 0.8 mi WSW 6.9 mph - 0.04 in Snow Light Snow
1:54 AM 24.1 °F 16.0 °F 23.0 °F 96% 30.16 in 0.8 mi WSW 6.9 mph - 0.05 in Snow Light Snow
2:24 AM 24.1 °F 13.7 °F 23.0 °F 96% 30.08 in 1.0 mi West 10.4 mph - 0.02 in Snow Light Snow
2:41 AM 24.1 °F 14.4 °F 23.0 °F 96% 30.08 in 1.8 mi West 9.2 mph - 0.03 in Snow Light Snow
2:52 AM 24.8 °F 14.6 °F 23.0 °F 93% 30.09 in 2.0 mi West 10.4 mph - 0.03 in Snow Light Snow
2:54 AM 24.1 °F 14.4 °F 23.0 °F 96% 30.21 in 2.0 mi West 9.2 mph - 0.03 in Snow Light Snow
3:05 AM 24.1 °F 13.1 °F 23.0 °F 96% 30.10 in 4.0 mi West 11.5 mph - 0.00 in Snow Light Snow
3:13 AM 24.1 °F 13.7 °F 23.0 °F 96% 30.11 in 1.8 mi West 10.4 mph - 0.00 in Snow Light Snow
3:23 AM 24.1 °F 13.7 °F 23.0 °F 96% 30.11 in 0.8 mi West 10.4 mph - 0.01 in Snow Light Snow
3:43 AM 24.1 °F 13.7 °F 23.0 °F 96% 30.12 in 0.8 mi West 10.4 mph - 0.02 in Snow Light Snow
3:48 AM 24.8 °F 14.6 °F 23.0 °F 93% 30.12 in 1.0 mi West 10.4 mph - 0.02 in Snow Light Snow
3:54 AM 24.1 °F 13.1 °F 24.1 °F 100% 30.25 in 1.0 mi West 11.5 mph - 0.02 in Snow Light Snow
4:18 AM 25.0 °F 14.8 °F 24.1 °F 96% 30.13 in 2.5 mi West 10.4 mph - 0.01 in Snow Light Snow
4:25 AM 25.0 °F 14.2 °F 24.1 °F 96% 30.14 in 4.0 mi West 11.5 mph - 0.01 in Snow Light Snow
4:38 AM 25.0 °F 13.6 °F 24.1 °F 96% 30.15 in 6.0 mi WSW 12.7 mph - 0.01 in   Overcast
4:49 AM 26.6 °F 16.8 °F 24.8 °F 93% 30.15 in 9.0 mi West 10.4 mph - 0.01 in   Overcast
4:54 AM 26.1 °F 16.2 °F 25.0 °F 96% 30.26 in 5.0 mi West 10.4 mph - 0.01 in Snow Light Snow
5:06 AM 26.1 °F 16.8 °F 26.1 °F 100% 30.15 in 1.8 mi West 9.2 mph - 0.00 in Snow Light Snow
5:22 AM 26.1 °F 16.8 °F 26.1 °F 100% 30.16 in 1.0 mi West 9.2 mph - 0.00 in Snow Light Snow
5:44 AM 27.0 °F 18.7 °F 26.1 °F 96% 30.18 in 3.0 mi West 8.1 mph - 0.00 in Snow Light Snow
5:54 AM 27.0 °F 18.0 °F 26.1 °F 96% 30.30 in 9.0 mi West 9.2 mph - 0.00 in   Overcast
6:24 AM 26.1 °F 16.2 °F 25.0 °F 96% 30.19 in 6.0 mi West 10.4 mph - 0.00 in   Overcast
6:44 AM 26.1 °F 17.6 °F 25.0 °F 96% 30.20 in 9.0 mi West 8.1 mph - 0.00 in   Overcast
6:54 AM 26.1 °F 16.8 °F 25.0 °F 96% 30.31 in 2.5 mi West 9.2 mph - 0.00 in Snow Light Snow
6:58 AM 27.0 °F 17.3 °F 26.1 °F 96% 30.20 in 3.0 mi West 10.4 mph - 0.00 in Snow Light Snow
7:08 AM 27.0 °F 16.1 °F 26.1 °F 96% 30.20 in 1.8 mi West 12.7 mph - 0.00 in Snow Light Snow
7:12 AM 27.0 °F 16.1 °F 26.1 °F 96% 30.20 in 3.0 mi West 12.7 mph - 0.00 in Snow Light Snow
7:54 AM 27.0 °F 16.7 °F 26.1 °F 96% 30.34 in 8.0 mi West 11.5 mph - 0.00 in   Overcast
8:10 AM 27.0 °F 17.3 °F 26.1 °F 96% 30.22 in 1.5 mi West 10.4 mph - 0.00 in Snow Light Snow
8:14 AM 26.1 °F 16.2 °F 26.1 °F 100% 30.23 in 1.0 mi West 10.4 mph - 0.00 in Snow Light Snow
8:50 AM 26.6 °F 16.8 °F 24.8 °F 93% 30.24 in 3.0 mi West 10.4 mph - 0.00 in Snow Light Snow
8:54 AM 26.1 °F 15.6 °F 25.0 °F 96% 30.35 in 6.0 mi West 11.5 mph - 0.00 in   Overcast
9:51 AM 24.8 °F 14.6 °F 24.8 °F 100% 30.25 in 10.0 mi WSW 10.4 mph - 0.00 in   Overcast
9:54 AM 25.0 °F 14.8 °F 23.0 °F 92% 30.38 in 10.0 mi WSW 10.4 mph - 0.00 in   Overcast
10:30 AM 27.0 °F 18.0 °F 25.0 °F 92% 30.27 in 10.0 mi WSW 9.2 mph - N/A   Overcast
10:41 AM 28.0 °F 19.3 °F 24.1 °F 85% 30.27 in 10.0 mi West 9.2 mph - N/A   Overcast
10:54 AM 28.0 °F 20.8 °F 25.0 °F 88% 30.38 in 10.0 mi WSW 6.9 mph - N/A   Overcast
11:54 AM 26.1 °F 18.4 °F 23.0 °F 88% 30.36 in 10.0 mi WSW 6.9 mph - N/A   Mostly Cloudy
12:54 PM 25.0 °F 17.1 °F 21.0 °F 85% 30.34 in 10.0 mi WSW 6.9 mph - N/A   Clear
1:54 PM 27.0 °F 18.0 °F 21.0 °F 78% 30.32 in 10.0 mi WSW 9.2 mph - N/A   Clear
2:54 PM 26.1 °F 16.2 °F 19.9 °F 78% 30.31 in 10.0 mi WSW 10.4 mph - N/A   Clear
3:54 PM 21.0 °F 10.6 °F 16.0 °F 81% 30.32 in 10.0 mi SW 9.2 mph - N/A   Clear
4:54 PM 19.0 °F 10.0 °F 14.0 °F 81% 30.32 in 10.0 mi West 6.9 mph - N/A   Clear
5:54 PM 27.0 °F 18.7 °F 17.1 °F 66% 30.30 in 10.0 mi West 8.1 mph - N/A   Overcast
6:54 PM 21.9 °F 12.5 °F 15.1 °F 75% 30.30 in 10.0 mi West 8.1 mph - N/A   Clear
7:54 PM 25.0 °F 17.1 °F 16.0 °F 69% 30.28 in 10.0 mi West 6.9 mph - N/A   Clear
8:54 PM 18.0 °F - 15.1 °F 88% 30.29 in 10.0 mi Calm Calm - N/A   Clear
9:54 PM 15.1 °F 7.7 °F 12.9 °F 91% 30.30 in 10.0 mi ESE 4.6 mph - N/A   Clear
10:54 PM 18.0 °F 8.7 °F 14.0 °F 84% 30.28 in 10.0 mi South 6.9 mph - N/A   Overcast
11:54 PM 17.1 °F 8.7 °F 15.1 °F 92% 30.27 in 10.0 mi SSE 5.8 mph - N/A   Clear